Regional Weather Roundup
Issued by NWS

Home | Current Version | Previous Version | Text Only | Print | Product List | Glossary On
Versions: 1 2 3 4 5 6 7 8 9 10 11 12 13 14 15 16 17 18 19 20 21 22 23 24 25 26 27 28 29 30 31 32 33 34 35 36 37 38 39 40 41 42 43 44 45 46 47 48 49 50
000
ASUS45 KCYS 281010
RWRWY

WYOMING REGIONAL WEATHER ROUNDUP
NATIONAL WEATHER SERVICE CHEYENNE WY
400 AM MDT TUE MAR 28 2017

NOTE:  "FAIR" INDICATES FEW OR NO CLOUDS BELOW 12,000 FEET
WITH NO SIGNIFICANT WEATHER AND/OR OBSTRUCTIONS TO VISIBILITY.

WYZ001-281100-
YELLOWSTONE NATIONAL PARK

CITY           SKY/WX    TMP DP  RH WIND       PRES   REMARKS
LK YELLOWSTONE   N/A     26  25  96 CALM      30.06R
W YELLOWSTONE  NOT AVBL

$$
WYZ002>013-054>058-071-098>099-281100-
NORTHERN WYOMING

CITY           SKY/WX    TMP DP  RH WIND       PRES   REMARKS
JACKSON        CLOUDY    34  30  86 N10       30.02S WCI  26
CODY           LGT RAIN  36  33  89 NW6       30.03R WCI  31
GREYBULL       MOCLDY    40  32  73 NW22G32   29.96R WCI  30
WORLAND        CLOUDY    41  37  86 N20G25    29.96R
SHERIDAN       CLOUDY    43  37  79 NW17      29.97R
BUFFALO        CLOUDY    42  36  79 NW14G25   29.97R
GILLETTE       FAIR      39  36  89 CALM      29.93S
HULETT         FAIR      37  34  87 CALM      29.95R
NEWCASTLE      FAIR      41  34  75 CALM      29.93F

$$
WYZ014>020-022>026-101>103-281100-
CENTRAL WYOMING

CITY           SKY/WX    TMP DP  RH WIND       PRES   REMARKS
BIG PINEY      CLOUDY    33  26  75 N15       29.96S WCI  23
PINEDALE       CLOUDY    32  28  86 NW15      29.96R WCI  22
DUBOIS         LGT SNOW  32  30  93 NW7       29.97R WCI  26
LANDER         LGT RAIN  36  34  92 W9        29.94F WCI  29
RIVERTON       CLOUDY    39  36  89 N13       29.94S WCI  31
CASPER         CLOUDY    40  35  83 CALM      29.90R
DOUGLAS        LGT RAIN  40  38  93 SE6       29.92F

$$
WYZ021-027>030-104>119-281100-
SOUTHERN WYOMING

CITY           SKY/WX    TMP DP  RH WIND       PRES   REMARKS
EVANSTON       CLOUDY    31  28  89 N20       29.98S WCI  19
KEMMERER         N/A     32  28  86 NW12      29.97S WCI  23
FORT BRIDGER   LGT SNOW  32  32 100 NW13      30.00S VSB 1   WCI  23
ROCK SPRINGS   FLURRIES  36  32  85 NW7       29.92S WCI  30
DIXON            N/A     36  34  92 CALM      29.88S
RAWLINS        CLOUDY    36  33  89 E6        29.89S WCI  31
SARATOGA       CLOUDY    34  34 100 CALM      29.89R
LARAMIE        MIX PCPN  34  34 100 NW7       29.87S FOG     WCI  28
CHEYENNE       CLOUDY    39  37  92 N12       29.85F WCI  32
TORRINGTON     LGT RAIN  45  44  97 NE13      29.87F
PINE BLUFFS    CLOUDY    43  41  93 NE7       29.86S

$$



USA.gov is the U.S. government's official web portal to all federal, state and local government web resources and services.